Location: Myra
(43.4160°N, 88.0960°W)
Time: 10:11:20
(UTC-05:00)

Daily predictions for brighter satellites

Satellite Brightness Start Highest point End
(mag) Time Altitude Azimuth Time Altitude Azimuth Time Altitude Azimuth
CENTAUR R/B 3.1 20:05:59 10° SW 20:12:03 68° NW 20:19:00 10° NNE
Cosmos 1869 Rocket 3.6 20:16:56 10° N 20:21:27 84° E 20:25:56 10° S
SeaSat 1 4.4 20:18:50 10° E 20:21:40 16° NE 20:24:31 10° N
Cosmos 2227 4.3 20:16:09 10° NNW 20:21:55 78° ENE 20:27:37 10° SSE
Resurs 1-3 3.7 20:18:09 10° SSE 20:22:32 86° WSW 20:26:57 10° NNW
Cosmos 1408 3.5 20:20:24 10° NNE 20:23:42 30° ENE 20:26:58 10° SE
Cosmos 2360 4.2 20:19:21 10° SSW 20:25:02 77° ESE 20:30:48 10° NNE
Atlas Centaur 2 4.2 20:21:44 10° SSW 20:26:21 18° SSE 20:31:25 10° ESE
Molniya-1 2.5 20:29:11 10° SSW 20:30:51 49° ESE 20:33:01 10° NE
Abrixas rocket 2.2 20:27:48 10° WSW 20:31:05 86° NNW 20:34:23 10° ENE
Cosmos 2242 Rocket 4.0 20:31:57 10° SSE 20:36:14 44° E 20:40:30 10° NNE
Cosmos 1455 2.6 20:33:47 10° SSW 20:37:33 65° W 20:41:19 10° N
Cosmos 2195 Rocket 4.5 20:34:20 10° N 20:40:27 69° E 20:46:34 10° SSE
Helios 1A 3.0 20:37:54 10° SSE 20:42:07 79° ENE 20:46:24 10° N
Meteor 2-20 4.4 20:36:09 10° N 20:42:19 83° E 20:48:27 10° S
Cosmos 1503 Rocket 4.1 20:37:48 10° NNW 20:43:04 65° ENE 20:48:09 10° SSE
CZ-4B DEB 4.5 20:39:57 10° SSE 20:43:30 76° ENE 20:47:04 10° N
Cosmos 2279 Rocket 4.3 20:38:00 10° SSE 20:43:54 46° E 20:49:49 10° NNE
CZ-3B DEB 3.6 20:44:34 10° W 20:46:38 13° WSW 20:48:13 10° SW
Cosmos 1354 Rocket 4.0 20:41:45 10° NNW 20:47:03 71° ENE 20:52:09 11° SSE
Cosmos 1869 3.3 20:46:34 10° S 20:50:30 88° W 20:54:28 10° N
USA 267 4.2 20:46:00 10° NE 20:52:17 52° NNW 20:58:34 10° WSW
Resurs 01 Rocket 3.3 20:49:42 10° SSW 20:53:45 35° W 20:57:52 10° NNW
OAO 3 Rocket 4.2 20:49:34 10° SW 20:53:50 30° S 20:56:39 18° SE
H-2A R/B 3.9 20:52:50 11° E 20:55:08 14° ENE 20:57:45 10° NNE
SJ-11-01 4.2 20:51:37 10° SSE 20:56:16 77° ENE 21:00:58 10° N
CZ-4B DEB 2.6 20:54:21 12° SSE 20:57:06 89° WSW 21:00:10 10° NNW
YAOGAN 6 3.1 20:56:57 19° SE 20:59:10 42° ENE 21:02:37 10° N
Meteor 1-29 2.9 20:57:16 10° NNE 21:00:47 82° ESE 21:04:14 10° S
FALCON 9 R/B 2.5 21:00:04 10° SSW 21:00:47 12° S 21:00:47 12° S
Cosmos 968 Rocket 4.4 20:59:22 10° N 21:04:01 32° ENE 21:06:50 20° ESE
Cosmos 2263 Rocket 2.3 20:59:04 10° NNW 21:04:35 59° ENE 21:08:26 20° SE
SPOT 5 3.9 21:04:10 19° ESE 21:06:31 28° ENE 21:10:29 10° N
COSMOS 2428 4.4 21:10:12 13° E 21:10:12 13° E 21:12:06 10° ENE
Cosmos 220 Rocket 4.4 21:05:06 10° NNW 21:09:31 63° WSW 21:13:27 13° S
Meteor 2-10 Rocket 4.2 21:05:37 13° SSE 21:10:28 41° E 21:15:52 10° NNE
Cosmos 2322 Rocket 2.1 21:04:59 10° SSW 21:10:35 82° ESE 21:16:15 10° NNE
Envisat 3.3 21:06:34 10° S 21:11:37 69° WSW 21:16:42 10° NNW
BREEZE-M DEB (TANK) 4.4 21:07:30 10° WNW 21:12:33 81° NNE 21:34:18 11° ESE
Sich 1 Rocket 4.2 21:10:30 10° N 21:14:41 38° ENE 21:16:31 26° SE
Cosmos 1933 3.3 21:11:30 12° S 21:15:06 63° E 21:19:06 10° NNE
Cosmos 2360 Rocket 2.6 21:15:53 10° S 21:21:04 39° ESE 21:26:18 10° NE
Cosmos 1980 Rocket 4.1 21:17:02 10° WSW 21:22:08 33° NW 21:27:17 10° N
BREEZE-M DEB (TANK) 3.9 21:19:03 10° W 21:22:30 69° N 21:32:58 10° E
Cosmos 1825 3.1 21:20:09 10° NNW 21:23:49 46° W 21:27:16 11° SSW
H-2A R/B 4.0 21:23:59 14° ENE 21:24:41 14° ENE 21:27:01 10° NNE
Cosmos 2026 Rocket 4.5 21:21:00 10° NNW 21:27:08 60° W 21:33:09 10° S
Cosmos 1908 Rocket 3.7 21:23:03 10° N 21:27:18 51° ENE 21:28:49 34° SE
USA 234 3.6 21:22:52 20° SSE 21:27:30 60° SW 21:34:00 10° NW
Cosmos 2322 4.1 21:25:27 19° SSE 21:28:56 39° ESE 21:34:12 10° NE
GENESIS II 4.2 21:25:49 10° SSW 21:29:53 85° ESE 21:33:57 10° NE
NOAA 11 4.2 21:28:03 26° SE 21:31:08 64° ENE 21:36:35 10° N
USA 245 4.5 21:30:44 28° SE 21:33:34 52° ENE 21:38:32 10° N
Cosmos 1862 4.1 21:33:38 10° NNW 21:37:33 50° W 21:40:18 18° SSW
SL-16 R/B 2.7 21:32:45 10° SW 21:38:22 63° WNW 21:44:02 10° NNE
Helios 1B rocket 4.3 21:35:48 10° N 21:39:26 31° WNW 21:43:03 10° SW
Cosmos 1782 Rocket 4.0 21:37:09 10° N 21:41:19 42° ENE 21:42:00 39° ESE
SPOT 1/Viking Rocket 4.0 21:40:22 33° ESE 21:42:04 44° ENE 21:47:01 10° N
Lacrosse 4 Rocket 2.7 21:38:48 10° NW 21:42:46 36° WSW 21:45:09 20° SSW
Okean 2 Rocket 3.9 21:40:25 10° N 21:44:34 34° ENE 21:44:59 33° E
ATLAS 5 CENTAUR R/B 2.4 21:38:50 10° NW 21:44:48 77° NE 21:47:45 34° SE
MetOp-B 4.1 21:42:09 31° SSE 21:44:48 81° ENE 21:50:11 10° NNW
ERBS 4.5 21:42:43 10° W 21:45:08 18° SW 21:46:04 16° SW
ERS-1 Rocket 3.2 21:42:09 23° S 21:45:17 68° WSW 21:50:18 10° NNW
Cosmos 1733 Rocket 4.3 21:43:47 10° NNW 21:47:57 40° W 21:51:22 14° SSW
Cosmos 2333 Rocket 4.3 21:52:12 11° ENE 21:52:12 11° ENE 21:52:32 10° ENE
Milstar 3 4.1 21:47:03 10° WSW 21:52:02 20° SSW 21:53:09 19° S
Cosmos 1782 4.5 21:53:34 21° ENE 21:53:34 21° ENE 21:55:35 10° NNE
ARGOS 3.1 21:52:58 39° SSE 21:55:01 77° ENE 22:00:24 10° N
Cosmos 2278 Rocket 4.0 21:54:16 10° N 21:58:12 19° NE 22:00:07 16° ENE
SeaSat 1 2.3 21:57:02 47° SE 21:58:30 85° ENE 22:03:29 10° NNW
Meteor 1-26 Rocket 4.2 21:58:32 21° S 22:02:26 85° W 22:08:16 10° N
Cosmos 1777 Rocket 4.2 22:00:32 10° NNW 22:05:44 54° ENE 22:06:40 48° ESE
Cosmos 1844 Rocket 3.2 22:02:36 10° NNW 22:07:56 43° ENE 22:09:04 39° E
Okean 1-7 2.9 22:07:56 67° E 22:08:00 67° E 22:12:23 10° NNE
Abrixas rocket 3.7 22:05:07 10° WNW 22:08:09 34° N 22:08:39 32° NNE
Terra 2.6 22:10:04 36° ENE 22:10:12 36° ENE 22:14:33 10° N
SL-08 RB Rocket 3.6 22:09:48 63° SSE 22:10:32 88° ENE 22:15:09 10° NNW
USA 229 DEB 3.6 22:04:59 10° SSW 22:11:43 66° ESE 22:18:36 10° NE
USA 229 3.6 22:05:06 10° SSW 22:11:49 66° ESE 22:18:41 10° NE
Atlas Centaur 2 3.8 22:08:19 10° SW 22:14:11 30° S 22:14:11 30° S
Cosmos 2266 Rocket 4.1 22:09:00 10° NNW 22:15:15 73° W 22:18:12 34° S
Cosmos 1703 Rocket 3.8 22:14:11 45° SSW 22:15:26 68° W 22:19:52 10° N
Nimbus 7 Rocket 4.3 22:15:25 10° NNE 22:21:22 89° E 22:24:01 36° SSW
Cosmos 2221 Rocket 3.6 22:21:33 69° SW 22:21:58 78° W 22:26:25 10° N
MOS 1-B Rocket 4.1 22:22:54 40° S 22:25:03 68° WSW 22:30:42 10° NNW
Cosmos 2219 Rocket 3.3 22:28:38 28° ENE 22:28:38 28° ENE 22:31:54 10° NE
CZ-4C R/B 3.8 22:22:32 10° NNW 22:28:52 36° NE 22:32:09 26° E
Meteor 1-10 Rocket 4.3 22:29:38 60° SE 22:30:11 64° E 22:36:00 10° NNE
DMSP B5D2-2 4.1 22:26:09 10° NNE 22:31:12 61° E 22:31:12 61° E
CARTOSAT-1 4.1 22:32:33 51° NE 22:32:33 51° NE 22:36:10 10° N
Cosmos 1867 3.8 22:26:40 10° NW 22:32:00 55° WSW 22:32:45 51° SSW
Meteor 1-11 Rocket 4.3 22:27:55 10° N 22:33:08 41° ENE 22:33:08 41° ENE
H-2A R/B 1.9 22:33:27 69° SSW 22:33:57 77° WSW 22:38:56 10° NNW
Cosmos 1244 Rocket 4.4 22:30:37 10° N 22:36:52 80° E 22:37:58 62° SSE
ASTEX 1 3.5 22:43:30 67° NE 22:43:30 67° NE 22:48:07 10° N
Cosmos 2237 4.3 22:42:03 43° SW 22:44:00 77° WNW 22:49:47 10° NNE
SPOT 5 4.1 22:43:24 30° SW 22:44:29 34° W 22:48:46 10° NNW
Cosmos 2263 Rocket 4.1 22:44:02 10° NW 22:48:00 20° W 22:50:08 16° SW
Cosmos 1553 Rocket 4.0 22:48:00 59° E 22:48:08 60° E 22:54:16 10° NNE
H-2A R/B 4.3 21:55:33 10° WSW 22:49:28 39° SSW 22:51:34 36° S
Geosat 4.0 22:45:55 10° NNE 22:50:29 73° NE 22:50:29 73° NE
SL-08 R/B 4.4 22:46:37 10° N 22:52:46 68° E 22:53:02 67° E
COSMOS 2428 2.6 22:52:08 71° SW 22:52:46 84° WNW 22:58:31 10° NNE
H-2A R/B 2.9 23:01:06 47° NW 23:01:06 47° NW 23:04:28 10° NNW
CZ-4B R/B 4.2 22:57:55 10° NNE 23:01:06 41° NE 23:01:06 41° NE
Cosmos 2360 Rocket 3.7 23:00:01 10° WSW 23:05:07 33° NW 23:10:15 10° N
Cosmos 1844 3.7 23:04:50 10° NNW 23:10:13 77° WNW 23:10:13 77° WNW
SL-16 R/B 4.3 23:19:13 15° ENE 23:19:13 15° ENE 23:20:33 10° NE
S3M 3.8 23:16:52 88° WSW 23:16:54 88° WNW 23:23:08 10° N
Cosmos 1709 Rocket 4.5 23:19:10 10° N 23:25:02 48° ENE 23:25:02 48° ENE
Cosmos 1386 Rocket 4.5 23:20:46 10° N 23:27:02 79° ENE 23:27:02 79° ENE
ATLAS 5 CENTAUR R/B 4.1 23:24:36 10° WNW 23:29:06 21° WSW 23:29:18 21° WSW
Cosmos 2333 Rocket 2.5 23:34:09 63° NNE 23:34:09 63° NNE 23:38:59 10° NNE
Cosmos 2237 Rocket 2.8 23:41:33 49° NE 23:41:33 49° NE 23:45:42 10° NNE
Cosmos 1898 Rocket 4.2 23:36:12 10° NNW 23:40:05 51° N 23:40:05 51° N
Cosmos 2278 Rocket 2.6 23:37:18 10° NNW 23:41:58 61° NW 23:41:58 61° NW
Terra 3.7 23:48:57 24° WNW 23:48:57 24° WNW 23:51:57 10° NW
Cosmos 1745 Rocket 4.4 23:44:06 10° NNW 23:50:11 54° W 23:50:11 54° W
Cosmos 1844 Rocket 4.2 23:46:54 10° NW 23:50:44 27° W 23:50:44 27° W
